Starlink 1302

operational
NORAD ID: 45375 Int'l Des: 2020-019 Owner: SPXS Country: US Constellation: starlink
LEOCIRCULARSTARLINK_TYPE

Starlink 1302について

説明を読み込み中...

リアルタイム位置

3D地球を読み込み中...

次回通過

高度履歴

Altitude vs Time

uPlot chart will show altitude changes over time

軌道要素

1 45375U 20019R 25348.85278704 .00000733 00000-0 68139-4 0 9993
2 45375 53.0529 187.4653 0001539 92.7452 267.3713 15.06392380316940
Epoch: Dec 14, 2025 • Age: 26 hours

現在のステータス

高度 552.6 km
速度 7.59 km/s
衛星直下点 52.66°N, 158.22°W
打ち上げ日 Mar 18, 2020
運用期間 5.7 years
タイプ internet

技術仕様

分類 Payload
質量 260.00 kg
乾燥質量 248.00 kg
総質量 260.00 kg
長さ 0.20 m
直径 2.80 m
スパン 9.00 m
形状 Box + pan
製造者 SPXS
バスタイプ Starlink
フェーズステータス In Orbit
所有者/国 SPXS/US

大規模コンステレーション

Loading constellations...